[[{"header":{"parameterUnit":"m.s-1","parameterCategory":1,"la1":30.2991,"la2":30.254,"lo1":-89.0895,"lo2":-89.0444,"dy":0.0017,"dx":0.0017,"nx":28,"ny":28,"refTime":"2023-07-27T03:00:00:Z","depth":0,"parameterNumber":2,"parameterNumberName":"U-component_of_WINDS"},"data":[0,0,0,0,0,0,0,0,0,0,0,0,0,0,0,0,0,0,0,0,0,0,0,0,0,0,0,0,0,0,0,0,0,0,0,0,0,0,0,0,0,0,0,0,0,0,0,0,0,0,0,0,0,0,0,0,0,0,0.4783,0.4784,0,0.4894,0.4895,0.4896,0.4971,0.4971,0.4972,0.4972,0.5084,0.5086,0.5089,0,0,0,0,0,0,0,0,0,0,0,0,0,0.4633,0.4635,0.4783,0.4784,0.4786,0.4894,0.4895,0.4897,0.497,0.4971,0.4972,0.4972,0.5083,0.5086,0.5089,0,0,0,0,0,0,0,0,0,0,0,0,0,0.4716,0.4636,0.4783,0.4836,0.4841,0.4893,0.4895,0.4897,0.497,0.4971,0.4972,0.4973,0.5082,0.5086,0.5089,0.5097,0,0,0.5101,0.5103,0,0,0,0,0,0,0,0,0.4711,0.4722,0.4826,0.4832,0.4839,0.4919,0.4883,0.4964,0.497,0.4921,0.4972,0.4973,0.5028,0.5037,0.5056,0.5102,0.5107,0.5101,0.5104,0.5105,0.5106,0,0,0,0,0,0,0,0.4705,0.4717,0.4827,0.4828,0.4835,0.4853,0.4866,0.4899,0.4969,0.4926,0.4931,0.4943,0.5032,0.5052,0.5059,0.5109,0.5101,0.5104,0.5107,0.5108,0.5166,0.5165,0,0,0,0,0,0,0.4692,0.4712,0.4823,0.483,0.4776,0.4855,0.4869,0.4892,0.4969,0.4981,0.4943,0.4946,0.5045,0.5054,0.5063,0.5076,0.5105,0.5109,0.5111,0.5166,0.5166,0.5165,0,0,0,0,0,0,0.4688,0.4701,0.4819,0.4773,0.4789,0.4857,0.4882,0.4894,0.4914,0.4982,0.4995,0.495,0.5046,0.5058,0.5088,0.5081,0.511,0.5114,0.5167,0.5166,0.5165,0.5102,0,0,0,0,0,0,0.4683,0.4699,0.4703,0.4772,0.4791,0.4842,0.4882,0.4896,0.4921,0.4927,0.4992,0.5004,0.5048,0.5082,0.5091,0.5087,0.5117,0.5168,0.5167,0.5166,0.5105,0.5099,0.5094,0,0,0,0,0,0.4678,0.4681,0.4703,0.4716,0.4798,0.4842,0.4852,0.4903,0.492,0.4924,0.4967,0.5002,0.508,0.5084,0.5096,0.5092,0.5169,0.5167,0.5166,0.5108,0.5101,0.5094,0,0,0,0,0,0,0.4609,0.4691,0.4716,0.4742,0.4784,0.4854,0.4861,0.4894,0.4932,0.4936,0.4996,0.501,0.5034,0.5066,0.5069,0.5103,0.5129,0.5129,0.5081,0.5074,0.5069,0.506,0.512,0,0,0,0,0,0.4597,0.4627,0.4696,0.4712,0.4732,0.4793,0.4814,0.4849,0.4895,0.4913,0.4959,0.5001,0.5036,0.5057,0.5092,0.5111,0.5125,0.5113,0.5108,0.5103,0.5102,0.5113,0.5109,0.516,0.516,0.516,0,0,0.4572,0.4621,0.4636,0.47,0.4737,0.4765,0.4807,0.4836,0.4857,0.4917,0.4948,0.4983,0.5035,0.5058,0.5071,0.5086,0.5092,0.5101,0.5096,0.5099,0.5111,0.5106,0.5102,0.5158,0.5159,0.5159,0,0,0.4542,0.4581,0.4599,0.4635,0.469,0.473,0.4734,0.4799,0.4824,0.4857,0.4902,0.4928,0.4986,0.5021,0.5046,0.5027,0.506,0.5037,0.5007,0.5017,0.5013,0.501,0.5002,0.4999,0.5036,0.5036,0.5036,0,0.4503,0.4549,0.4603,0.4629,0.4655,0.4711,0.4729,0.4761,0.4824,0.4841,0.4857,0.493,0.4969,0.5001,0.4996,0.5015,0.502,0.5029,0.5009,0.5007,0.5004,0.4998,0.4995,0.5033,0.5033,0.5034,0.5034,0,0.4499,0.4529,0.4536,0.4597,0.4624,0.4645,0.4702,0.4723,0.4755,0.4793,0.4825,0.4873,0.4919,0.4929,0.4961,0.4965,0.4973,0.4998,0.5025,0.4995,0.499,0.4988,0.5028,0.5029,0.503,0.5031,0,0,0.4428,0.4518,0.4519,0.4547,0.4612,0.4636,0.4659,0.4704,0.472,0.4762,0.4782,0.483,0.4853,0.4882,0.4918,0.4927,0.4907,0.4951,0.4953,0.4941,0.4914,0.4894,0.489,0.493,0.4929,0.4929,0.4909,0,0.4406,0.4452,0.4501,0.4529,0.4557,0.461,0.463,0.4671,0.4707,0.4736,0.4776,0.4808,0.4837,0.4854,0.4865,0.4907,0.4903,0.491,0.4948,0.4949,0.4933,0.4888,0.4867,0.4846,0.4908,0.4907,0.4907,0,0.4387,0.4426,0.4457,0.4518,0.4532,0.4549,0.4594,0.4621,0.4668,0.4694,0.4725,0.4764,0.479,0.4814,0.485,0.4853,0.4872,0.4895,0.4895,0.49,0.4926,0.4891,0.484,0.4837,0.4905,0.4905,0.4905,0,0.4331,0.4392,0.4418,0.444,0.4513,0.4523,0.4554,0.4602,0.4626,0.4664,0.468,0.4721,0.4743,0.4774,0.4822,0.4835,0.4852,0.4881,0.4873,0.4872,0.4874,0.4873,0.4825,0.4887,0.4887,0.4887,0.4887,0,0.4301,0.4318,0.4393,0.4409,0.4429,0.4485,0.4502,0.4537,0.458,0.4603,0.4651,0.4672,0.4735,0.4762,0.48,0.4823,0.4833,0.4854,0.4863,0.4849,0.4846,0.4862,0.4864,0.4886,0.4887,0.4887,0.4887,0,0.4242,0.4294,0.4325,0.4391,0.4408,0.4419,0.4476,0.4492,0.4531,0.4559,0.4569,0.4629,0.4664,0.4715,0.4765,0.4791,0.4808,0.4824,0.4792,0.4797,0.4787,0.4787,0.4747,0.4744,0.4807,0.4807,0.4806,0,0.4219,0.4233,0.4301,0.432,0.4349,0.4379,0.4403,0.4458,0.4482,0.4536,0.4546,0.4584,0.4618,0.4671,0.4718,0.4757,0.4774,0.4757,0.478,0.4765,0.4773,0.4771,0.4772,0.4751,0.475,0.475,0.4749,0,0.4173,0.4198,0.4231,0.4273,0.4301,0.4337,0.4375,0.4387,0.4451,0.4474,0.451,0.4536,0.4587,0.4624,0.4669,0.47,0.4734,0.4742,0.4742,0.4727,0.4707,0.4717,0.4776,0.4742,0.4743,0.4743,0.4744,0.4744,0.4131,0.4145,0.4195,0.423,0.4265,0.4299,0.4318,0.4358,0.439,0.4436,0.4467,0.4501,0.4547,0.4611,0.4639,0.4666,0.4681,0.4681,0.4682,0.4681,0.4675,0.4703,0.4675,0.4675,0.4675,0.4675,0.4676,0,0.4086,0.4121,0.4153,0.4204,0.4232,0.4263,0.4306,0.4327,0.4357,0.4397,0.4429,0.447,0.4506,0.4557,0.4596,0.4608,0.4625,0.4616,0.4616,0.4622,0.466,0.4655,0.4602,0.4602,0.4602,0.4602,0.4602,0.4602,0.4066,0.4092,0.4122,0.4165,0.42,0.4234,0.4256,0.4287,0.432,0.4363,0.4394,0.4427,0.4471,0.4514,0.4548,0.4562,0.4573,0.456,0.4578,0.4613,0.4619,0.4626,0.4622,0.4562,0.4562,0.4538,0.4538,0.4538]},{"header":{"parameterUnit":"m.s-1","parameterCategory":1,"la1":30.2991,"la2":30.254,"lo1":-89.0895,"lo2":-89.0444,"dy":0.0017,"dx":0.0017,"nx":28,"ny":28,"refTime":"2023-07-27T03:00:00:Z","depth":0,"parameterNumber":3,"parameterNumberName":"V-component_of_WINDS"},"data":[0,0,0,0,0,0,0,0,0,0,0,0,0,0,0,0,0,0,0,0,0,0,0,0,0,0,0,0,0,0,0,0,0,0,0,0,0,0,0,0,0,0,0,0,0,0,0,0,0,0,0,0,0,0,0,0,0,0,3.0198,3.0197,0,3.0144,3.0144,3.0143,3.0134,3.0135,3.0135,3.0136,3.0075,3.0073,3.0071,0,0,0,0,0,0,0,0,0,0,0,0,0,3.0286,3.0285,3.0198,3.0197,3.0196,3.0144,3.0144,3.0143,3.0134,3.0135,3.0135,3.0136,3.0075,3.0073,3.0071,0,0,0,0,0,0,0,0,0,0,0,0,0,3.0242,3.0284,3.0198,3.0186,3.0184,3.0144,3.0144,3.0143,3.0134,3.0135,3.0136,3.0136,3.0076,3.0073,3.007,3.0036,0,0,3.0061,3.0059,0,0,0,0,0,0,0,0,3.0244,3.0238,3.0188,3.0187,3.0185,3.0147,3.0152,3.0107,3.0134,3.0153,3.0136,3.0137,3.0098,3.0093,3.0081,3.0034,3.0031,3.006,3.0059,3.0057,3.0056,0,0,0,0,0,0,0,3.0247,3.0241,3.0176,3.0188,3.0185,3.0181,3.0176,3.0144,3.0122,3.0151,3.0151,3.0145,3.0097,3.0084,3.008,3.003,3.0061,3.0058,3.0056,3.0055,2.9951,2.995,0,0,0,0,0,0,3.0253,3.0243,3.0178,3.0175,3.0217,3.0179,3.0173,3.0158,3.0122,3.0117,3.0144,3.0145,3.0089,3.0083,3.0077,3.0035,3.0057,3.0054,3.0053,2.9952,2.9951,2.995,0,0,0,0,0,0,3.0255,3.0248,3.018,3.0209,3.02,3.0177,3.016,3.0157,3.0144,3.0117,3.0112,3.0136,3.0089,3.0082,3.0047,3.0033,3.0053,3.005,2.9953,2.9951,2.995,2.995,0,0,0,0,0,0,3.0258,3.0248,3.0237,3.0209,3.0198,3.0152,3.0159,3.0155,3.0139,3.0139,3.0108,3.0103,3.0089,3.0052,3.0044,3.0029,3.0048,2.9954,2.9952,2.995,2.9951,2.9949,2.9947,0,0,0,0,0,3.0261,3.0238,3.0236,3.0228,3.0184,3.0152,3.0146,3.0132,3.0138,3.0125,3.0108,3.0104,3.0036,3.0048,3.0039,3.0023,2.9955,2.9953,2.9951,2.9952,2.9949,2.9947,0,0,0,0,0,0,3.0263,3.0234,3.0232,3.0199,3.0178,3.015,3.0134,3.013,3.0105,3.0106,3.0089,3.0081,3.0047,3.0031,3.0046,2.9988,2.9995,2.9991,2.9999,2.9996,2.9994,2.9998,3.0045,0,0,0,0,0,3.026,3.0238,3.0213,3.0186,3.0176,3.0157,3.0142,3.0134,3.0111,3.0101,3.0081,3.0057,3.003,3.0012,2.9986,2.9949,2.9941,2.9933,2.9931,2.9929,2.9926,2.9903,2.9899,2.9943,2.9943,2.9943,0,0,3.0252,3.0234,3.0221,3.0186,3.0169,3.0145,3.0149,3.0124,3.0105,3.0097,3.0063,3.0047,3.0019,2.9982,2.9965,2.9968,2.9912,2.9927,2.9926,2.9923,2.9901,2.9897,2.9893,2.9942,2.9942,2.9942,0,0,3.0227,3.0211,3.0187,3.017,3.0145,3.0132,3.0126,3.0099,3.0089,3.0055,3.0048,3.0024,2.9979,2.9958,2.9942,2.9909,2.9903,2.99,2.9889,2.9867,2.9864,2.9861,2.9847,2.9843,2.9897,2.9897,2.9897,0,3.022,3.0186,3.0175,3.015,3.0134,3.0127,3.0101,3.0085,3.0051,3.0039,3.0044,2.9986,2.9966,2.9925,2.9917,2.9904,2.9895,2.9904,2.9866,2.9862,2.9859,2.9846,2.9841,2.9897,2.9897,2.9897,2.9897,0,3.0179,3.0155,3.0138,3.0108,3.009,3.0065,3.0048,3.0031,3.0024,3.001,2.9975,2.9951,2.992,2.9909,2.9902,2.9866,2.9869,2.9869,2.9877,2.9855,2.9842,2.9838,2.9897,2.9897,2.9897,2.9897,0,0,3.0152,3.0117,3.011,3.0096,3.0068,3.0048,3.0021,2.9993,2.9978,2.9954,2.993,2.9892,2.9893,2.9874,2.9864,2.9845,2.9819,2.9848,2.9847,2.9843,2.9776,2.9775,2.977,2.9816,2.9815,2.9814,2.9778,0,3.0122,3.0077,3.0066,3.0027,3.0004,2.9997,2.9973,2.9952,2.9938,2.9915,2.9899,2.9871,2.9875,2.9864,2.9845,2.9826,2.9805,2.9829,2.9791,2.979,2.9798,2.9764,2.9763,2.973,2.9774,2.9773,2.9772,0,3.0082,3.006,3.0019,2.9993,2.9982,2.9962,2.9934,2.9912,2.9887,2.9878,2.9858,2.985,2.982,2.9829,2.9786,2.9803,2.9786,2.9775,2.9773,2.9768,2.9779,2.9757,2.972,2.9715,2.9765,2.9765,2.9766,0,3.0065,3.0025,2.9995,2.9983,2.9952,2.9938,2.9924,2.99,2.9883,2.9858,2.9846,2.9818,2.9801,2.9778,2.9761,2.977,2.9719,2.9728,2.9709,2.971,2.9698,2.9699,2.9657,2.9689,2.969,2.969,2.969,0,3.0033,3.0007,2.9987,2.9969,2.994,2.9926,2.9897,2.9883,2.9861,2.9838,2.983,2.9808,2.9788,2.9762,2.9749,2.9714,2.9707,2.9698,2.9694,2.9698,2.9699,2.9686,2.9688,2.9688,2.9689,2.9689,2.9689,0,3.0009,2.9995,2.9962,2.9936,2.9929,2.9908,2.9885,2.9865,2.9851,2.9822,2.9814,2.9792,2.9761,2.9743,2.9704,2.9694,2.9656,2.9654,2.9665,2.9664,2.9646,2.9647,2.9593,2.9585,2.9624,2.9624,2.9624,0,2.9989,2.997,2.9942,2.9927,2.9914,2.9889,2.9872,2.9858,2.984,2.981,2.9794,2.9763,2.9738,2.969,2.9668,2.9638,2.9634,2.9617,2.9629,2.9634,2.9633,2.9634,2.9631,2.9615,2.9615,2.9614,2.9614,0,2.9954,2.9948,2.9926,2.99,2.9881,2.9859,2.9838,2.9825,2.9807,2.9787,2.9757,2.9738,2.9699,2.9668,2.9636,2.9619,2.9612,2.9611,2.9605,2.9608,2.9615,2.961,2.9659,2.9612,2.9612,2.9612,2.9612,2.9612,2.9931,2.9913,2.9891,2.9866,2.9849,2.9829,2.9809,2.9793,2.9769,2.9737,2.973,2.9698,2.9672,2.9628,2.9611,2.9584,2.9586,2.9578,2.9575,2.9573,2.9572,2.962,2.9578,2.9578,2.9578,2.9578,2.9578,0,2.9895,2.9881,2.9858,2.9829,2.9808,2.9807,2.9783,2.9765,2.9738,2.9715,2.9691,2.9656,2.9626,2.9602,2.9571,2.9554,2.955,2.9546,2.9546,2.9542,2.9572,2.9581,2.9549,2.9549,2.9549,2.9549,2.9549,2.9549,2.9874,2.9844,2.9835,2.9795,2.978,2.9751,2.9737,2.9718,2.97,2.9661,2.9637,2.9623,2.9599,2.9566,2.9538,2.9531,2.9519,2.9516,2.9509,2.9537,2.954,2.9543,2.9551,2.9514,2.9513,2.948,2.948,2.948]}]]